Weather History for Pecos, TX

Change the Weather History Date:

Wednesday, November 10, 2010

  Actual Average Record
Temperature  
Mean Temperature 60 °F -  
Max Temperature 77 °F 73 °F 89 °F (1915)
Min Temperature 43 °F 38 °F 15 °F (1950)
Degree Days  
Heating Degree Days 5    
Growing Degree Days 10 (Base 50)    
Moisture  
Dew Point 26 °F    
Average Humidity 31    
Maximum Humidity 56    
Minimum Humidity 16    
Precipitation  
Precipitation 0.00 in - - ()
Sea Level Pressure  
Sea Level Pressure 29.94 in    
Wind  
Wind Speed 5 mph (West)    
Max Wind Speed 10 mph    
Max Gust Speed -    
Visibility 10 miles    
Events      
Averages and records for this station are not official NWS values.
T = Trace of Precipitation, MM = Missing Value Source: NWS Daily Summary

Daily Weather History Graph

Daily Weather History Graph

Search for Another Location

Airport:

Trip Planner

Search our weather history database for the weather conditions in past years. The results will help you decide how hot, cold, wet, or windy it might be!

Date:

Astronomy

Nov. 10, 2010 Rise Set
Actual Time 7:17 AM CST 5:58 PM CST
Civil Twilight 6:51 AM CST 6:23 PM CST
Nautical Twilight 6:22 AM CST 6:52 PM CST
Astronomical Twilight 5:54 AM CST 7:21 PM CST
Moon 11:36 AM CST (11/10) 10:08 PM CST (11/10)
Length of Visible Light 11h 31m
Length of Day
10h 40m
Waxing Crescent, 23% of the Moon is Illuminated
Nov 10
Waxing Crescent
Nov 13
First Quarter
Nov 21
Full
Nov 28
Last Quarter
Dec 5
New

Hourly Weather History & Observations

Time (CST) Temp. Windchill Dew Point Humidity Pressure Visibility Wind Dir Wind Speed Gust Speed Precip Events Conditions
12:05 AM 50.9 °F - 20.3 °F 30% 29.88 in 10.0 mi SSW 6.9 mph - N/A   Clear
12:25 AM 50.0 °F - 19.4 °F 30% 29.88 in 10.0 mi South 6.9 mph - N/A   Clear
12:45 AM 49.5 °F - 19.0 °F 30% 29.88 in 10.0 mi SW 5.8 mph - N/A   Clear
1:05 AM 47.8 °F - 18.5 °F 31% 29.89 in 10.0 mi SSW 6.9 mph - N/A   Clear
1:25 AM 45.5 °F 43.2 °F 18.5 °F 34% 29.89 in 10.0 mi WSW 4.6 mph - N/A   Clear
1:45 AM 44.4 °F 42.9 °F 18.5 °F 35% 29.89 in 10.0 mi West 3.5 mph - N/A   Clear
2:05 AM 45.3 °F 44.0 °F 18.9 °F 35% 29.90 in 10.0 mi WSW 3.5 mph - N/A   Clear
2:25 AM 46.4 °F 41.5 °F 21.0 °F 37% 29.89 in 10.0 mi West 10.4 mph - N/A   Clear
2:45 AM 48.4 °F - 23.0 °F 37% 29.90 in 10.0 mi NE 4.6 mph - N/A   Clear
3:05 AM 50.2 °F - 25.3 °F 38% 29.91 in 10.0 mi Calm Calm - N/A   Clear
3:25 AM 45.1 °F 42.8 °F 23.0 °F 42% 29.91 in 10.0 mi East 4.6 mph - N/A   Clear
3:45 AM 44.6 °F - 22.6 °F 42% 29.92 in 10.0 mi Calm Calm - N/A   Clear
4:05 AM 43.5 °F 41.9 °F 21.2 °F 41% 29.93 in 10.0 mi SSE 3.5 mph - N/A   Clear
4:45 AM 44.8 °F 42.4 °F 25.0 °F 46% 29.93 in 10.0 mi West 4.6 mph - N/A   Clear
5:05 AM 46.6 °F - 27.7 °F 48% 29.95 in 10.0 mi NW 10.4 mph - N/A   Clear
5:25 AM 48.7 °F - 27.5 °F 44% 29.95 in 10.0 mi North 6.9 mph - N/A   Clear
5:45 AM 47.3 °F - 28.0 °F 47% 29.96 in 10.0 mi WNW 6.9 mph - N/A   Clear
6:05 AM 44.4 °F 40.5 °F 27.7 °F 52% 29.96 in 10.0 mi WNW 6.9 mph - N/A   Clear
6:25 AM 44.1 °F 39.5 °F 28.6 °F 55% 29.96 in 10.0 mi West 8.1 mph - N/A   Clear
6:45 AM 44.1 °F 42.5 °F 29.3 °F 56% 29.98 in 10.0 mi NW 3.5 mph - N/A   Clear
7:05 AM 43.7 °F 41.1 °F 28.6 °F 55% 29.98 in 10.0 mi NNW 4.6 mph - N/A   Clear
7:25 AM 44.1 °F 41.5 °F 27.9 °F 53% 29.99 in 10.0 mi NNW 4.6 mph - N/A   Clear
7:45 AM 44.1 °F 42.5 °F 28.4 °F 54% 30.00 in 10.0 mi North 3.5 mph - N/A   Clear
8:05 AM 46.0 °F 43.9 °F 29.3 °F 52% 30.00 in 10.0 mi NNW 4.6 mph - N/A   Clear
8:25 AM 48.2 °F - 29.3 °F 48% 30.01 in 10.0 mi NNW 3.5 mph - N/A   Clear
8:45 AM 51.8 °F - 29.3 °F 42% 30.02 in 10.0 mi NNW 3.5 mph - N/A   Clear
9:05 AM 55.0 °F - 27.1 °F 34% 30.03 in 10.0 mi North 5.8 mph - N/A   Clear
9:25 AM 56.7 °F - 26.2 °F 31% 30.03 in 10.0 mi North 5.8 mph - N/A   Clear
9:45 AM 58.3 °F - 24.8 °F 28% 30.03 in 10.0 mi NNW 3.5 mph - N/A   Clear
10:25 AM 63.5 °F - 21.9 °F 20% 30.03 in 10.0 mi NE 3.5 mph - N/A   Clear
10:45 AM 64.8 °F - 21.9 °F 20% 30.03 in 10.0 mi East 3.5 mph - N/A   Clear
11:05 AM 66.4 °F - 21.7 °F 18% 30.03 in 10.0 mi ESE 5.8 mph - N/A   Clear
11:25 AM 68.0 °F - 23.7 °F 19% 30.02 in 10.0 mi ESE 6.9 mph - N/A   Clear
11:45 AM 68.4 °F - 25.3 °F 20% 30.01 in 10.0 mi Calm Calm - N/A   Clear
12:05 PM 69.6 °F - 25.9 °F 19% 30.00 in 10.0 mi Calm Calm - N/A   Clear
12:25 PM 71.1 °F - 26.4 °F 19% 29.98 in 10.0 mi ESE 3.5 mph - N/A   Clear
12:45 PM 72.1 °F - 28.4 °F 20% 29.97 in 10.0 mi Calm Calm - N/A   Clear
1:05 PM 72.5 °F - 28.8 °F 20% 29.96 in 10.0 mi South 6.9 mph - N/A   Clear
1:25 PM 73.6 °F - 29.1 °F 19% 29.95 in 10.0 mi WSW 3.5 mph - N/A   Clear
1:45 PM 74.3 °F - 29.1 °F 19% 29.93 in 10.0 mi SW 9.2 mph - N/A   Clear
2:05 PM 74.7 °F - 28.4 °F 18% 29.92 in 10.0 mi West 6.9 mph - N/A   Clear
2:25 PM 74.7 °F - 28.4 °F 18% 29.91 in 10.0 mi West 5.8 mph - N/A   Clear
2:45 PM 75.9 °F - 28.2 °F 17% 29.91 in 10.0 mi WSW 3.5 mph - N/A   Clear
3:05 PM 76.3 °F - 28.4 °F 17% 29.90 in 10.0 mi Calm Calm - N/A   Clear
3:25 PM 76.3 °F - 27.9 °F 17% 29.90 in 10.0 mi SSE 3.5 mph - N/A   Clear
3:45 PM 77.0 °F - 27.7 °F 16% 29.90 in 10.0 mi WSW 3.5 mph - N/A   Clear
4:05 PM 77.0 °F - 28.6 °F 17% 29.90 in 10.0 mi SE 8.1 mph - N/A   Clear
4:25 PM 76.6 °F - 28.4 °F 17% 29.90 in 10.0 mi Calm Calm - N/A   Clear
4:45 PM 77.0 °F - 28.4 °F 17% 29.90 in 10.0 mi SE 6.9 mph - N/A   Clear
5:05 PM 76.1 °F - 28.2 °F 17% 29.90 in 10.0 mi SE 8.1 mph - N/A   Clear
5:25 PM 75.0 °F - 28.4 °F 18% 29.90 in 10.0 mi ESE 4.6 mph - N/A   Clear
5:45 PM 72.1 °F - 28.4 °F 20% 29.91 in 10.0 mi ESE 6.9 mph - N/A   Clear
6:05 PM 67.6 °F - 29.3 °F 24% 29.91 in 10.0 mi ESE 5.8 mph - N/A   Clear
6:25 PM 63.9 °F - 28.8 °F 27% 29.91 in 10.0 mi East 8.1 mph - N/A   Clear
6:45 PM 62.8 °F - 28.8 °F 28% 29.91 in 10.0 mi ESE 6.9 mph - N/A   Clear
7:05 PM 60.8 °F - 28.4 °F 29% 29.92 in 10.0 mi ESE 5.8 mph - N/A   Clear
7:25 PM 59.0 °F - 28.0 °F 31% 29.93 in 10.0 mi ESE 5.8 mph - N/A   Clear
7:45 PM 57.6 °F - 27.5 °F 32% 29.93 in 10.0 mi ESE 8.1 mph - N/A   Clear
8:05 PM 55.6 °F - 27.3 °F 34% 29.93 in 10.0 mi ESE 6.9 mph - N/A   Clear
8:25 PM 56.7 °F - 28.2 °F 34% 29.94 in 10.0 mi ESE 5.8 mph - N/A   Clear
8:45 PM 56.8 °F - 28.2 °F 33% 29.95 in 10.0 mi East 6.9 mph - N/A   Clear
9:05 PM 58.3 °F - 29.3 °F 33% 29.95 in 10.0 mi East 4.6 mph - N/A   Clear
9:25 PM 57.4 °F - 29.3 °F 34% 29.95 in 10.0 mi East 6.9 mph - N/A   Clear
9:45 PM 56.7 °F - 29.3 °F 35% 29.95 in 10.0 mi East 6.9 mph - N/A   Clear
10:05 PM 57.6 °F - 29.8 °F 35% 29.95 in 10.0 mi East 8.1 mph - N/A   Clear
10:25 PM 55.0 °F - 29.7 °F 38% 29.95 in 10.0 mi ESE 6.9 mph - N/A   Clear
10:45 PM 52.7 °F - 30.2 °F 42% 29.95 in 10.0 mi SE 5.8 mph - N/A   Clear
11:05 PM 52.7 °F - 31.5 °F 44% 29.95 in 10.0 mi South 4.6 mph - N/A   Clear
11:25 PM 48.9 °F - 29.1 °F 46% 29.95 in 10.0 mi South 5.8 mph - N/A   Clear
11:45 PM 49.3 °F - 29.5 °F 46% 29.95 in 10.0 mi South 4.6 mph - N/A   Clear